CZ-6A DEB, 55216

Orbit data source: Space-Track

CZ-6A DEB, 55216 is space debris in SSO originally from a launch on Fri, 11 Nov 2022 UTC launched from the Taiyaun Space Center, China (TSC). Debris objects in space refer to the collection of defunct objects orbiting the Earth. Examples of debris include non-operational satellites, rocket bodies, and fragments generated from explosions, collisions, or faulty payload assembly.

Loading next visibility...
Identifier
55216, 2022-151WH
Orbit
SSO
Country
Flag of CNCN / PRC
Related business
Manufacturer
SAST
Mission
Spacecraft
Bus & Motor
Unknown
Mass
Unknown
Launch date (UTC)
2022-11-11 (4 years ago)
Launch vehicle
Unknown
Launch site
Taiyaun Space Center, China (TSC)
Object type
Payload
Rocket body
Debris
Shape & HBR
Unknown shape, 0.1 m
Radar Cross Section
Small (<0.1 m²)

Expand to show TLE details & history
Last TLE update: 6 hours ago

TLE from 6 hours ago
0 CZ-6A DEB
1 55216U 22151WH  26236.62463262  .00007667  00000-0  13578-2 0  9992
2 55216  98.6073 294.7456 0074698  94.7319 266.2418 14.65784663194438
Epoch: 2026-08-24T14:59Z
TLE epoch observation values (Epoch: 2026-08-24T14:59:28.258Z)
Latitude
-0.00007°
Longitude
96.97421°
Altitude
681.383 km
Speed
7.514 km/s
True Right ascension
19h 38m 58s
True Declination
0° 00' 00"
Sunlit
Object was in full shadow at epoch
Visualization orbit readout
Latitude
Unknown
Longitude
Unknown
Altitude
Unknown
Speed
Unknown
Apparent Right ascension
Unknown
Apparent Declination
Unknown
Sunlit
N/A
Visualization observer readout
Local Sidereal Time
12:11:06
Azimuth
Unknown
Elevation
Unknown
Doppler factor
Unknown
Orbital elements
Apogee altitude
724.31 km
Perigee altitude
618.989 km
Semi-major axis
7,049.787 km
Eccentricity
0.00747
Inclination
98.6073°
RAAN
294.7456°
Arg. of periapsis
94.7319°
True anomaly
265.38822°
Mean anomaly
266.2418°
Eccentric anomaly
265.81495°
Mean motion
3.66673 °/min
Orbital period
98.18 mins
BSTAR
0.0013578
Loading maneuver chart data...
Computing Atmospheric mass density...
Loading historical data...
Loading historical data...
Loading historical data...
Loading historical data...
Loading historical data...
Loading historical data...
Loading historical data...

Documentation

Showing up to 5 results
|